| time (UTC) | temp F | wind direction | speed knots | gust knots | rain 1hr in | rain 24hr in | rain mn in | humidity % | barometer mb |
| 20260901053903 | 76 | 92 | 0.9 | 2.6 | 0.00 | 0.89 | 0.89 | 70 | 1015.7 |
| 20260901052403 | 77 | 130 | 0.9 | 2.6 | 0.00 | 0.89 | 0.89 | 69 | 1015.6 |
| 20260901051904 | 77 | 103 | 0.9 | 2.6 | 0.00 | 0.89 | 0.89 | 68 | 1015.6 |
| 20260901051403 | 77 | 140 | 0.9 | 5.2 | 0.00 | 0.89 | 0.89 | 68 | 1015.5 |
| 20260901050903 | 77 | 114 | 1.7 | 5.2 | 0.00 | 0.89 | 0.89 | 68 | 1015.6 |
| 20260901050403 | 77 | 110 | 1.7 | 5.2 | 0.00 | 0.89 | 0.89 | 68 | 1015.7 |
| 20260901045903 | 77 | 129 | 1.7 | 2.6 | 0.00 | 0.89 | 0.89 | 68 | 1015.7 |
| 20260901045403 | 77 | 140 | 0.9 | 2.6 | 0.00 | 0.89 | 0.89 | 68 | 1015.9 |
| 20260901044902 | 77 | 106 | 0.9 | 2.6 | 0.00 | 0.89 | 0.89 | 68 | 1015.9 |
| 20260901044403 | 76 | 135 | 0.9 | 2.6 | 0.00 | 0.89 | 0.89 | 68 | 1015.9 |
| 20260901043903 | 76 | 121 | 0.9 | 2.6 | 0.00 | 0.89 | 0.89 | 69 | 1015.8 |
| 20260901043403 | 76 | 121 | 0.9 | 2.6 | 0.00 | 0.89 | 0.89 | 70 | 1015.7 |
| 20260901042903 | 76 | 116 | 0.0 | 1.7 | 0.00 | 0.89 | 0.89 | 70 | 1015.7 |
| 20260901042403 | 76 | 112 | 0.0 | 1.7 | 0.00 | 0.89 | 0.89 | 71 | 1015.7 |
| 20260901041904 | 76 | 126 | 0.0 | 2.6 | 0.00 | 0.89 | 0.89 | 70 | 1015.6 |
| 20260901040903 | 76 | 111 | 0.0 | 2.6 | 0.00 | 0.89 | 0.89 | 70 | 1015.5 |
| 20260901040403 | 76 | 122 | 0.0 | 0.0 | 0.00 | 0.89 | 0.89 | 70 | 1015.4 |
| 20260901035904 | 76 | 117 | 0.0 | 0.0 | 0.00 | 0.89 | 0.89 | 70 | 1015.5 |
| 20260901035403 | 76 | 117 | 0.0 | 0.0 | 0.00 | 0.89 | 0.89 | 70 | 1015.6 |
| 20260901033904 | 76 | 105 | 0.0 | 0.0 | 0.00 | 0.89 | 0.89 | 72 | 1015.4 |
| 20260901033403 | 76 | 105 | 0.0 | 0.0 | 0.00 | 0.89 | 0.89 | 73 | 1015.3 |
| 20260901032903 | 76 | 105 | 0.0 | 0.0 | 0.00 | 0.89 | 0.89 | 72 | 1015.4 |
| 20260901031903 | 77 | 105 | 0.0 | 0.0 | 0.00 | 0.89 | 0.89 | 71 | 1015.3 |
| 20260901031403 | 77 | 105 | 0.0 | 0.0 | 0.00 | 0.89 | 0.89 | 70 | 1015.3 |
| 20260901030403 | 77 | 129 | 0.0 | 0.9 | 0.00 | 0.89 | 0.89 | 69 | 1015.2 |
| 20260901025903 | 77 | 135 | 0.0 | 0.9 | 0.00 | 0.89 | 0.89 | 69 | 1015.2 |
| 20260901024903 | 77 | 132 | 0.0 | 0.9 | 0.00 | 0.89 | 0.89 | 69 | 1015.0 |
| 20260901024403 | 78 | 104 | 0.0 | 0.9 | 0.00 | 0.89 | 0.89 | 69 | 1014.9 |
| 20260901023903 | 78 | 104 | 0.0 | 0.9 | 0.00 | 0.89 | 0.89 | 69 | 1014.8 |
| 20260901023403 | 78 | 104 | 0.0 | 0.9 | 0.00 | 0.89 | 0.89 | 69 | 1014.6 |
| 20260901022903 | 78 | 104 | 0.0 | 1.7 | 0.89 | 0.89 | 0.89 | 69 | 1014.4 |
| 20260901022403 | 78 | 104 | 0.0 | 1.7 | 0.89 | 0.89 | 0.89 | 68 | 1014.3 |
| 20260901021903 | 78 | 115 | 0.0 | 1.7 | 0.89 | 0.89 | 0.89 | 67 | 1014.3 |
| 20260901021403 | 78 | 106 | 0.0 | 0.9 | 0.89 | 0.89 | 0.89 | 68 | 1014.2 |
| 20260901020903 | 78 | 71 | 0.0 | 0.9 | 0.89 | 0.89 | 0.89 | 69 | 1014.1 |
| 20260901020403 | 79 | 71 | 0.0 | 0.9 | 0.89 | 0.89 | 0.89 | 68 | 1014.0 |
| 20260901015903 | 79 | 65 | 0.0 | 0.0 | 0.89 | 0.89 | 0.89 | 68 | 1014.0 |
| 20260901015403 | 80 | 65 | 0.0 | 0.0 | 0.89 | 0.89 | 0.89 | 67 | 1014.0 |
| 20260901014903 | 80 | 65 | 0.0 | 0.0 | 0.89 | 0.89 | 0.89 | 66 | 1014.1 |
| 20260901014404 | 80 | 65 | 0.0 | 0.0 | 0.89 | 0.89 | 0.89 | 66 | 1014.2 |
| 20260901013403 | 81 | 65 | 0.0 | 0.0 | 0.89 | 0.89 | 0.89 | 64 | 1013.8 |
| 20260901012403 | 81 | 53 | 0.0 | 2.6 | 0.00 | 0.00 | 0.00 | 64 | 1013.7 |
| 20260901011904 | 81 | 79 | 0.9 | 2.6 | 0.00 | 0.00 | 0.00 | 65 | 1013.7 |
| 20260901011404 | 81 | 57 | 0.0 | 1.7 | 0.00 | 0.00 | 0.00 | 64 | 1013.7 |
| 20260901010903 | 81 | 57 | 0.0 | 1.7 | 0.00 | 0.00 | 0.00 | 63 | 1013.5 |
| 20260901010404 | 81 | 88 | 0.0 | 1.7 | 0.00 | 0.00 | 0.00 | 61 | 1013.6 |
| 20260901005902 | 81 | 88 | 0.0 | 1.7 | 0.00 | 0.00 | 0.00 | 62 | 1013.7 |
| 20260901005404 | 81 | 74 | 0.0 | 1.7 | 0.00 | 0.00 | 0.00 | 61 | 1013.8 |
| 20260901004903 | 81 | 92 | 0.0 | 1.7 | 0.00 | 0.00 | 0.00 | 61 | 1013.8 |
| 20260901004404 | 81 | 106 | 0.0 | 1.7 | 0.00 | 0.00 | 0.00 | 60 | 1013.8 |
| 20260901003903 | 81 | 101 | 0.0 | 1.7 | 0.00 | 0.00 | 0.00 | 62 | 1013.8 |
| 20260901003403 | 81 | 110 | 0.0 | 1.7 | 0.00 | 0.00 | 0.00 | 60 | 1013.8 |
| 20260901002903 | 81 | 83 | 0.9 | 2.6 | 0.00 | 0.00 | 0.00 | 60 | 1013.8 |
| 20260901002403 | 81 | 138 | 0.0 | 2.6 | 0.00 | 0.00 | 0.00 | 60 | 1013.8 |
| 20260901001903 | 81 | 128 | 0.9 | 2.6 | 0.00 | 0.00 | 0.00 | 60 | 1013.9 |
| 20260901001403 | 81 | 121 | 0.9 | 2.6 | 0.00 | 0.00 | 0.00 | 59 | 1013.9 |
| 20260901000402 | 81 | 141 | 1.7 | 5.2 | 0.00 | 0.00 | 0.00 | 60 | 1013.9 |
| 20260831235903 | 81 | 121 | 2.6 | 5.2 | 0.00 | 0.00 | 0.00 | 59 | 1014.1 |
| 20260831235403 | 81 | 217 | 0.9 | 5.2 | 0.00 | 0.00 | 0.00 | 60 | 1013.9 |
| 20260831234903 | 81 | 111 | 0.9 | 7.0 | 0.00 | 0.00 | 0.00 | 60 | 1014.0 |
| 20260831234403 | 81 | 88 | 2.6 | 7.0 | 0.00 | 0.00 | 0.00 | 59 | 1014.1 |
| 20260831233903 | 81 | 138 | 2.6 | 6.1 | 0.00 | 0.00 | 0.00 | 60 | 1014.1 |
| 20260831232903 | 81 | 150 | 1.7 | 5.2 | 0.00 | 0.00 | 0.00 | 61 | 1014.0 |
| 20260831232403 | 81 | 119 | 1.7 | 7.0 | 0.00 | 0.00 | 0.00 | 62 | 1013.9 |
| 20260831231903 | 81 | 109 | 1.7 | 7.0 | 0.00 | 0.00 | 0.00 | 62 | 1014.0 |
| 20260831231403 | 81 | 185 | 1.7 | 6.1 | 0.00 | 0.00 | 0.00 | 62 | 1014.1 |
| 20260831230903 | 80 | 114 | 2.6 | 6.1 | 0.00 | 0.00 | 0.00 | 62 | 1014.1 |
| 20260831230403 | 80 | 116 | 0.9 | 7.0 | 0.00 | 0.00 | 0.00 | 64 | 1014.1 |
| 20260831225903 | 80 | 103 | 1.7 | 7.0 | 0.00 | 0.00 | 0.00 | 66 | 1014.2 |
| 20260831225402 | 80 | 161 | 0.9 | 5.2 | 0.00 | 0.00 | 0.00 | 67 | 1014.3 |
| 20260831224904 | 80 | 82 | 1.7 | 5.2 | 0.00 | 0.00 | 0.00 | 67 | 1014.4 |
| 20260831224404 | 80 | 118 | 1.7 | 2.6 | 0.00 | 0.00 | 0.00 | 68 | 1014.4 |
| 20260831223903 | 80 | 93 | 0.0 | 2.6 | 0.00 | 0.00 | 0.00 | 67 | 1014.5 |
| 20260831222903 | 79 | 131 | 1.7 | 2.6 | 0.00 | 0.00 | 0.00 | 67 | 1014.5 |
| 20260831222402 | 79 | 88 | 0.9 | 5.2 | 0.00 | 0.00 | 0.00 | 69 | 1014.6 |
| 20260831221903 | 79 | 144 | 0.9 | 6.1 | 0.00 | 0.00 | 0.00 | 67 | 1014.6 |
| 20260831221403 | 78 | 125 | 0.9 | 6.1 | 0.00 | 0.00 | 0.00 | 68 | 1014.7 |
| 20260831220903 | 78 | 150 | 0.9 | 2.6 | 0.00 | 0.00 | 0.00 | 72 | 1014.8 |
| 20260831220404 | 78 | 81 | 1.7 | 2.6 | 0.00 | 0.00 | 0.00 | 72 | 1015.1 |
| 20260831215903 | 78 | 127 | 0.9 | 7.0 | 0.00 | 0.00 | 0.00 | 72 | 1015.3 |
| 20260831215403 | 78 | 111 | 1.7 | 7.0 | 0.00 | 0.00 | 0.00 | 73 | 1015.3 |
| 20260831214903 | 77 | 305 | 1.7 | 7.0 | 0.00 | 0.00 | 0.00 | 74 | 1015.5 |
| 20260831213903 | 77 | 138 | 0.9 | 2.6 | 0.00 | 0.00 | 0.00 | 75 | 1015.8 |
| 20260831213403 | 77 | 79 | 0.0 | 4.3 | 0.00 | 0.00 | 0.00 | 75 | 1015.7 |
| 20260831212903 | 76 | 111 | 1.7 | 4.3 | 0.00 | 0.00 | 0.00 | 75 | 1015.8 |
| 20260831211403 | 76 | 136 | 0.9 | 4.3 | 0.00 | 0.00 | 0.00 | 76 | 1016.4 |
| 20260831210902 | 76 | 167 | 1.7 | 4.3 | 0.00 | 0.00 | 0.00 | 76 | 1016.6 |
| 20260831205903 | 76 | 93 | 0.9 | 2.6 | 0.00 | 0.00 | 0.00 | 76 | 1016.8 |
| 20260831205403 | 76 | 120 | 0.9 | 2.6 | 0.00 | 0.00 | 0.00 | 76 | 1016.9 |
| 20260831204903 | 76 | 116 | 0.9 | 2.6 | 0.00 | 0.00 | 0.00 | 76 | 1017.0 |
| 20260831204403 | 76 | 144 | 0.9 | 6.1 | 0.00 | 0.00 | 0.00 | 76 | 1017.3 |
| 20260831203903 | 76 | 112 | 1.7 | 6.1 | 0.00 | 0.00 | 0.00 | 76 | 1017.3 |
| 20260831203403 | 76 | 105 | 1.7 | 6.1 | 0.00 | 0.00 | 0.00 | 76 | 1017.5 |
| 20260831202903 | 76 | 140 | 1.7 | 6.1 | 0.00 | 0.00 | 0.00 | 76 | 1017.6 |
| 20260831202403 | 76 | 148 | 0.0 | 6.1 | 0.00 | 0.00 | 0.00 | 76 | 1018.0 |
| 20260831201404 | 76 | 103 | 1.7 | 7.0 | 0.00 | 0.00 | 0.00 | 75 | 1018.2 |
| 20260831200902 | 76 | 121 | 1.7 | 7.8 | 0.00 | 0.00 | 0.00 | 74 | 1018.3 |
| 20260831200403 | 76 | 91 | 1.7 | 7.8 | 0.00 | 0.00 | 0.00 | 74 | 1018.3 |
| 20260831195902 | 76 | 108 | 2.6 | 7.8 | 0.00 | 0.00 | 0.00 | 74 | 1018.5 |
| 20260831195403 | 76 | 143 | 3.5 | 7.8 | 0.00 | 0.00 | 0.00 | 73 | 1018.6 |
| 20260831194903 | 76 | 107 | 1.7 | 8.7 | 0.00 | 0.00 | 0.00 | 74 | 1018.6 |
| 20260831194403 | 77 | 110 | 3.5 | 8.7 | 0.00 | 0.00 | 0.00 | 73 | 1018.5 |
| 20260831193903 | 77 | 84 | 1.7 | 6.1 | 0.00 | 0.00 | 0.00 | 72 | 1018.8 |
| 20260831193403 | 77 | 58 | 2.6 | 8.7 | 0.00 | 0.00 | 0.00 | 72 | 1019.1 |
| 20260831192403 | 77 | 64 | 4.3 | 8.7 | 0.00 | 0.00 | 0.00 | 72 | 1018.6 |
| 20260831191904 | 77 | 58 | 2.6 | 8.7 | 0.00 | 0.00 | 0.00 | 71 | 1018.7 |
| 20260831191404 | 77 | 68 | 2.6 | 8.7 | 0.00 | 0.00 | 0.00 | 71 | 1018.8 |
| 20260831190904 | 77 | 56 | 4.3 | 8.7 | 0.00 | 0.00 | 0.00 | 72 | 1018.7 |
| 20260831190403 | 77 | 73 | 2.6 | 7.0 | 0.00 | 0.00 | 0.00 | 71 | 1019.0 |
| 20260831185903 | 77 | 54 | 2.6 | 6.1 | 0.00 | 0.00 | 0.00 | 71 | 1019.2 |
| 20260831185403 | 77 | 78 | 1.7 | 6.1 | 0.00 | 0.00 | 0.00 | 71 | 1019.4 |
| 20260831184904 | 77 | 99 | 0.9 | 6.1 | 0.00 | 0.00 | 0.00 | 71 | 1019.5 |
| 20260831184403 | 77 | 85 | 2.6 | 6.1 | 0.00 | 0.00 | 0.00 | 71 | 1019.5 |
| 20260831183903 | 77 | 43 | 0.9 | 2.6 | 0.00 | 0.00 | 0.00 | 71 | 1019.3 |
| 20260831183403 | 77 | 57 | 0.9 | 2.6 | 0.00 | 0.00 | 0.00 | 70 | 1019.4 |
| 20260831182903 | 77 | 63 | 0.0 | 2.6 | 0.00 | 0.00 | 0.00 | 70 | 1019.6 |
| 20260831182403 | 77 | 38 | 0.9 | 2.6 | 0.00 | 0.00 | 0.00 | 70 | 1019.7 |
| 20260831181903 | 77 | 348 | 0.0 | 0.9 | 0.00 | 0.00 | 0.00 | 71 | 1019.7 |
| 20260831180903 | 77 | 348 | 0.9 | 2.6 | 0.00 | 0.00 | 0.00 | 70 | 1019.7 |
| 20260831180403 | 78 | 253 | 0.9 | 2.6 | 0.00 | 0.00 | 0.00 | 71 | 1019.5 |
| 20260831175903 | 78 | 302 | 0.9 | 2.6 | 0.00 | 0.00 | 0.00 | 71 | 1019.6 |
| 20260831175403 | 78 | 38 | 1.7 | 2.6 | 0.00 | 0.00 | 0.00 | 70 | 1019.6 |
| 20260831174903 | 78 | 41 | 1.7 | 5.2 | 0.00 | 0.00 | 0.00 | 70 | 1019.7 |
| 20260831174403 | 78 | 18 | 0.9 | 5.2 | 0.00 | 0.00 | 0.00 | 70 | 1019.7 |
| 20260831173903 | 78 | 304 | 1.7 | 4.3 | 0.00 | 0.00 | 0.00 | 70 | 1019.6 |
| 20260831173403 | 78 | 300 | 0.9 | 2.6 | 0.00 | 0.00 | 0.00 | 70 | 1019.8 |
| 20260831172903 | 78 | 221 | 0.0 | 2.6 | 0.00 | 0.00 | 0.00 | 69 | 1019.9 |
| 20260831172403 | 78 | 230 | 0.9 | 2.6 | 0.00 | 0.00 | 0.00 | 68 | 1019.8 |
| 20260831171904 | 78 | 336 | 1.7 | 2.6 | 0.00 | 0.00 | 0.00 | 69 | 1019.4 |
| 20260831171403 | 79 | 5 | 1.7 | 2.6 | 0.00 | 0.00 | 0.00 | 69 | 1019.3 |
| 20260831170403 | 79 | 302 | 0.9 | 7.8 | 0.00 | 0.00 | 0.00 | 69 | 1019.2 |
| 20260831165903 | 79 | 230 | 1.7 | 7.8 | 0.00 | 0.00 | 0.00 | 69 | 1019.1 |
| 20260831165403 | 80 | 280 | 2.6 | 7.8 | 0.00 | 0.00 | 0.00 | 68 | 1019.0 |
| 20260831164903 | 80 | 198 | 0.9 | 5.2 | 0.00 | 0.00 | 0.00 | 67 | 1019.1 |
| 20260831164403 | 80 | 255 | 0.9 | 5.2 | 0.00 | 0.00 | 0.00 | 65 | 1019.0 |
| 20260831163903 | 80 | 215 | 1.7 | 7.0 | 0.00 | 0.00 | 0.00 | 64 | 1018.8 |
| 20260831163403 | 81 | 272 | 1.7 | 7.0 | 0.00 | 0.00 | 0.00 | 64 | 1018.5 |
| 20260831162403 | 81 | 289 | 1.7 | 7.0 | 0.00 | 0.00 | 0.00 | 63 | 1017.9 |
| 20260831161903 | 81 | 244 | 0.9 | 4.3 | 0.00 | 0.00 | 0.00 | 62 | 1017.8 |
| 20260831161403 | 81 | 318 | 2.6 | 4.3 | 0.00 | 0.00 | 0.00 | 60 | 1017.8 |
| 20260831160903 | 81 | 348 | 0.0 | 5.2 | 0.00 | 0.00 | 0.00 | 61 | 1017.8 |
| 20260831160403 | 81 | 30 | 0.0 | 5.2 | 0.00 | 0.00 | 0.00 | 60 | 1017.6 |
| 20260831155903 | 81 | 36 | 1.7 | 4.3 | 0.00 | 0.00 | 0.00 | 57 | 1017.5 |
| 20260831155403 | 81 | 82 | 0.9 | 7.8 | 0.00 | 0.00 | 0.00 | 57 | 1017.4 |
| 20260831154903 | 81 | 55 | 1.7 | 7.8 | 0.00 | 0.00 | 0.00 | 56 | 1017.1 |
| 20260831154403 | 81 | 94 | 2.6 | 5.2 | 0.00 | 0.00 | 0.00 | 57 | 1016.9 |
| 20260831153903 | 81 | 68 | 1.7 | 4.3 | 0.00 | 0.00 | 0.00 | 58 | 1016.8 |
| 20260831153403 | 80 | 82 | 1.7 | 5.2 | 0.00 | 0.00 | 0.00 | 60 | 1016.8 |
| 20260831152903 | 80 | 115 | 1.7 | 5.2 | 0.00 | 0.00 | 0.00 | 64 | 1016.9 |
| 20260831152403 | 80 | 66 | 1.7 | 5.2 | 0.00 | 0.00 | 0.00 | 66 | 1017.0 |
| 20260831151403 | 80 | 69 | 0.9 | 2.6 | 0.00 | 0.00 | 0.00 | 66 | 1016.9 |
| 20260831150903 | 80 | 61 | 0.9 | 2.6 | 0.00 | 0.00 | 0.00 | 67 | 1016.8 |
| 20260831150403 | 79 | 54 | 0.9 | 2.6 | 0.00 | 0.00 | 0.00 | 67 | 1016.7 |
| 20260831145903 | 79 | 119 | 0.0 | 1.7 | 0.00 | 0.00 | 0.00 | 65 | 1016.6 |
| 20260831145403 | 79 | 105 | 0.0 | 0.0 | 0.00 | 0.00 | 0.00 | 66 | 1016.5 |
| 20260831144902 | 79 | 105 | 0.0 | 2.6 | 0.00 | 0.00 | 0.00 | 64 | 1016.4 |
| 20260831144403 | 79 | 105 | 0.0 | 7.0 | 0.00 | 0.00 | 0.00 | 62 | 1016.4 |
| 20260831143904 | 79 | 122 | 0.9 | 7.0 | 0.00 | 0.00 | 0.00 | 62 | 1016.2 |
| 20260831143403 | 79 | 112 | 2.6 | 10.4 | 0.00 | 0.00 | 0.00 | 62 | 1015.9 |
| 20260831142903 | 79 | 91 | 2.6 | 10.4 | 0.00 | 0.00 | 0.00 | 62 | 1015.7 |
| 20260831142403 | 79 | 69 | 2.6 | 10.4 | 0.00 | 0.00 | 0.00 | 62 | 1015.3 |
| 20260831141903 | 79 | 66 | 3.5 | 12.2 | 0.00 | 0.00 | 0.00 | 62 | 1015.3 |
| 20260831141403 | 78 | 77 | 4.3 | 12.2 | 0.00 | 0.00 | 0.00 | 64 | 1015.2 |
| 20260831140904 | 78 | 52 | 3.5 | 10.4 | 0.00 | 0.00 | 0.00 | 65 | 1015.3 |
| 20260831135903 | 78 | 44 | 5.2 | 13.0 | 0.00 | 0.00 | 0.00 | 67 | 1015.4 |
| 20260831135403 | 78 | 59 | 5.2 | 13.0 | 0.00 | 0.00 | 0.00 | 68 | 1015.5 |
| 20260831134903 | 78 | 41 | 3.5 | 11.3 | 0.00 | 0.00 | 0.00 | 69 | 1015.5 |
| 20260831133903 | 78 | 37 | 4.3 | 13.9 | 0.00 | 0.00 | 0.00 | 69 | 1015.5 |
| 20260831132903 | 79 | 53 | 6.1 | 14.8 | 0.00 | 0.00 | 0.00 | 69 | 1015.7 |
| 20260831132403 | 79 | 50 | 4.3 | 12.2 | 0.00 | 0.00 | 0.00 | 68 | 1016.1 |
| 20260831131903 | 79 | 48 | 3.5 | 8.7 | 0.00 | 0.00 | 0.00 | 69 | 1016.5 |
| 20260831130403 | 79 | 54 | 4.3 | 10.4 | 0.00 | 0.00 | 0.00 | 68 | 1016.9 |
| 20260831125903 | 79 | 80 | 0.9 | 8.7 | 0.00 | 0.00 | 0.00 | 68 | 1017.1 |
| 20260831125403 | 79 | 54 | 4.3 | 8.7 | 0.00 | 0.00 | 0.00 | 67 | 1016.5 |
| 20260831124903 | 79 | 58 | 3.5 | 7.8 | 0.00 | 0.00 | 0.00 | 66 | 1016.6 |
| 20260831124403 | 79 | 48 | 1.7 | 10.4 | 0.00 | 0.00 | 0.00 | 67 | 1016.5 |
| 20260831123903 | 79 | 43 | 4.3 | 11.3 | 0.00 | 0.00 | 0.00 | 66 | 1016.4 |
| 20260831123403 | 79 | 38 | 3.5 | 11.3 | 0.00 | 0.00 | 0.00 | 68 | 1016.3 |
| 20260831122404 | 79 | 37 | 2.6 | 10.4 | 0.00 | 0.00 | 0.00 | 67 | 1016.3 |
| 20260831121904 | 80 | 37 | 4.3 | 10.4 | 0.00 | 0.00 | 0.00 | 67 | 1016.5 |
| 20260831121404 | 80 | 26 | 4.3 | 10.4 | 0.00 | 0.00 | 0.00 | 66 | 1016.7 |
| 20260831120904 | 80 | 33 | 2.6 | 10.4 | 0.00 | 0.00 | 0.00 | 66 | 1017.0 |
| 20260831120403 | 80 | 32 | 3.5 | 10.4 | 0.00 | 0.00 | 0.00 | 66 | 1017.0 |
| 20260831115903 | 81 | 247 | 2.6 | 7.8 | 0.00 | 0.00 | 0.00 | 64 | 1016.7 |
| 20260831115403 | 81 | 199 | 2.6 | 7.0 | 0.00 | 0.00 | 0.00 | 63 | 1016.6 |
| 20260831114903 | 82 | 214 | 1.7 | 6.1 | 0.00 | 0.00 | 0.00 | 61 | 1016.5 |
| 20260831114403 | 82 | 221 | 1.7 | 10.4 | 0.00 | 0.00 | 0.00 | 60 | 1016.5 |
| 20260831113903 | 83 | 230 | 3.5 | 11.3 | 0.00 | 0.00 | 0.00 | 58 | 1016.5 |
| 20260831113403 | 83 | 243 | 4.3 | 12.2 | 0.00 | 0.00 | 0.00 | 57 | 1016.1 |
| 20260831112903 | 83 | 249 | 4.3 | 14.8 | 0.00 | 0.00 | 0.00 | 54 | 1015.9 |
| 20260831112403 | 84 | 258 | 7.8 | 15.6 | 0.00 | 0.00 | 0.00 | 53 | 1015.5 |
| 20260831111903 | 84 | 230 | 6.1 | 18.2 | 0.00 | 0.00 | 0.00 | 53 | 1015.1 |
| 20260831110903 | 85 | 224 | 7.0 | 18.2 | 0.00 | 0.00 | 0.00 | 51 | 1015.1 |
| 20260831110403 | 86 | 232 | 8.7 | 17.4 | 0.00 | 0.00 | 0.00 | 50 | 1015.1 |
| 20260831105903 | 86 | 233 | 2.6 | 7.8 | 0.00 | 0.00 | 0.00 | 46 | 1014.2 |
| 20260831105404 | 86 | 220 | 0.9 | 1.7 | 0.00 | 0.00 | 0.00 | 46 | 1013.8 |
| 20260831104903 | 86 | 247 | 0.0 | 0.9 | 0.00 | 0.00 | 0.00 | 46 | 1013.5 |
| 20260831104403 | 86 | 301 | 0.0 | 0.0 | 0.00 | 0.00 | 0.00 | 47 | 1013.2 |
| 20260831103903 | 86 | 301 | 0.0 | 0.0 | 0.00 | 0.00 | 0.00 | 47 | 1013.2 |
| 20260831102904 | 86 | 301 | 0.0 | 0.0 | 0.00 | 0.00 | 0.00 | 47 | 1013.4 |
| 20260831101903 | 86 | 301 | 0.0 | 0.0 | 0.00 | 0.00 | 0.00 | 48 | 1013.4 |
| 20260831100403 | 86 | 299 | 0.0 | 0.0 | 0.00 | 0.00 | 0.00 | 46 | 1013.2 |
| 20260831095903 | 86 | 299 | 0.0 | 0.0 | 0.00 | 0.00 | 0.00 | 46 | 1012.9 |
| 20260831095403 | 87 | 299 | 0.0 | 0.0 | 0.00 | 0.00 | 0.00 | 46 | 1012.9 |
| 20260831094903 | 87 | 299 | 0.0 | 0.9 | 0.00 | 0.00 | 0.00 | 46 | 1012.9 |
| 20260831094403 | 87 | 315 | 0.0 | 1.7 | 0.00 | 0.00 | 0.00 | 46 | 1013.0 |
| 20260831093903 | 87 | 323 | 0.0 | 1.7 | 0.00 | 0.00 | 0.00 | 46 | 1013.0 |
| 20260831093403 | 87 | 314 | 0.9 | 1.7 | 0.00 | 0.00 | 0.00 | 46 | 1013.0 |
| 20260831092903 | 87 | 41 | 0.0 | 1.7 | 0.00 | 0.00 | 0.00 | 46 | 1013.0 |
| 20260831091904 | 87 | 16 | 0.0 | 0.9 | 0.00 | 0.00 | 0.00 | 46 | 1013.1 |
| 20260831091403 | 87 | 16 | 0.0 | 0.9 | 0.00 | 0.00 | 0.00 | 46 | 1013.2 |
| 20260831090903 | 87 | 16 | 0.0 | 0.0 | 0.00 | 0.00 | 0.00 | 47 | 1013.2 |
| 20260831090403 | 87 | 16 | 0.0 | 2.6 | 0.00 | 0.00 | 0.00 | 46 | 1013.1 |
| 20260831085904 | 87 | 16 | 0.0 | 2.6 | 0.00 | 0.00 | 0.00 | 47 | 1013.2 |
| 20260831085403 | 87 | 55 | 0.9 | 2.6 | 0.00 | 0.00 | 0.00 | 47 | 1013.2 |
| 20260831084903 | 87 | 65 | 0.0 | 0.0 | 0.00 | 0.00 | 0.00 | 46 | 1013.2 |
| 20260831084403 | 87 | 65 | 0.0 | 0.0 | 0.00 | 0.00 | 0.00 | 46 | 1013.2 |
| 20260831083903 | 87 | 65 | 0.0 | 0.0 | 0.00 | 0.00 | 0.00 | 46 | 1013.2 |
| 20260831083403 | 87 | 65 | 0.0 | 0.9 | 0.00 | 0.00 | 0.00 | 46 | 1013.3 |
| 20260831081903 | 87 | 65 | 0.0 | 0.0 | 0.00 | 0.00 | 0.00 | 48 | 1013.3 |
| 20260831081403 | 87 | 65 | 0.0 | 0.0 | 0.00 | 0.00 | 0.00 | 48 | 1013.3 |
| 20260831080903 | 87 | 65 | 0.0 | 1.7 | 0.00 | 0.00 | 0.00 | 49 | 1013.3 |
| 20260831080403 | 87 | 65 | 0.0 | 1.7 | 0.00 | 0.00 | 0.00 | 48 | 1013.4 |
| 20260831075903 | 88 | 336 | 0.0 | 0.0 | 0.00 | 0.00 | 0.00 | 46 | 1013.2 |
| 20260831074903 | 88 | 336 | 0.0 | 0.9 | 0.00 | 0.00 | 0.00 | 46 | 1013.4 |
| 20260831074403 | 88 | 336 | 0.0 | 0.9 | 0.00 | 0.00 | 0.00 | 45 | 1013.3 |
| 20260831073903 | 88 | 286 | 0.0 | 0.0 | 0.00 | 0.00 | 0.00 | 42 | 1013.3 |
| 20260831073403 | 89 | 286 | 0.0 | 0.9 | 0.00 | 0.00 | 0.00 | 42 | 1013.4 |
| 20260831072903 | 89 | 286 | 0.0 | 0.9 | 0.00 | 0.00 | 0.00 | 42 | 1013.4 |
| 20260831071904 | 89 | 292 | 0.0 | 0.9 | 0.00 | 0.00 | 0.00 | 42 | 1013.3 |
| 20260831070903 | 89 | 292 | 0.0 | 0.9 | 0.00 | 0.00 | 0.00 | 42 | 1013.4 |
| 20260831070403 | 89 | 292 | 0.0 | 1.7 | 0.00 | 0.00 | 0.00 | 42 | 1013.5 |
| 20260831065904 | 89 | 292 | 0.0 | 1.7 | 0.00 | 0.00 | 0.00 | 42 | 1013.5 |
| 20260831065403 | 89 | 331 | 0.0 | 0.9 | 0.00 | 0.00 | 0.00 | 42 | 1013.6 |
| 20260831064903 | 89 | 334 | 0.0 | 0.9 | 0.00 | 0.00 | 0.00 | 42 | 1013.6 |
| 20260831064403 | 89 | 333 | 0.0 | 0.9 | 0.00 | 0.00 | 0.00 | 42 | 1013.6 |
| 20260831063903 | 89 | 333 | 0.0 | 0.9 | 0.00 | 0.00 | 0.00 | 42 | 1013.7 |
| 20260831063403 | 89 | 333 | 0.0 | 0.9 | 0.00 | 0.00 | 0.00 | 42 | 1013.7 |
| 20260831062903 | 89 | 333 | 0.0 | 0.9 | 0.00 | 0.00 | 0.00 | 42 | 1013.6 |
| 20260831062403 | 89 | 333 | 0.0 | 0.9 | 0.00 | 0.00 | 0.00 | 41 | 1013.7 |
| 20260831061903 | 89 | 355 | 0.0 | 0.9 | 0.00 | 0.00 | 0.00 | 41 | 1013.7 |
| 20260831061403 | 89 | 18 | 0.0 | 0.0 | 0.00 | 0.00 | 0.00 | 41 | 1013.7 |
| 20260831060904 | 89 | 18 | 0.0 | 0.0 | 0.00 | 0.00 | 0.00 | 41 | 1013.6 |
| 20260831060404 | 89 | 18 | 0.0 | 0.0 | 0.00 | 0.00 | 0.00 | 41 | 1013.6 |
| 20260831055903 | 89 | 18 | 0.0 | 0.9 | 0.00 | 0.00 | 0.00 | 40 | 1013.6 |
| 20260831055403 | 90 | 18 | 0.0 | 0.9 | 0.00 | 0.00 | 0.00 | 40 | 1013.5 |